Regional Weather Roundup
Issued by NWS Sioux Falls, SD

Home | Current Version | Previous Version | Text Only | Print | Product List | Glossary Off
Versions: 1 2 3 4 5 6 7 8 9 10 11 12 13 14 15 16 17 18 19 20 21 22 23 24 25 26 27 28 29 30 31 32 33 34 35 36 37 38 39 40 41 42 43 44 45 46 47 48 49 50

000
ASUS43 KFSD 200510
RWRFSD

WEATHER ROUNDUP FOR SE SOUTH DAKOTA/SW MINNESOTA/NW IOWA
NATIONAL WEATHER SERVICE SIOUX FALLS SD
1100 PM CST SUN FEB 19 2017

NOTE: "FAIR" INDICATES FEW OR NO CLOUDS BELOW 12,000 FEET WITH NO
SIGNIFICANT WEATHER AND OR OBSTRUCTIONS TO VISIBILITY.


SDZ038>040-050-052>070-200600-
SOUTHEAST SOUTH DAKOTA

CITY           SKY/WX    TMP DP  RH WIND       PRES   REMARKS
BROOKINGS      CLOUDY    52  47  83 S15       29.70S
CHAMBERLAIN    CLOUDY    62  48  60 S15       29.57F
HURON          CLOUDY    54  49  83 S14       29.62S
MADISON        FAIR      52  52 100 S14       29.70S
MITCHELL       CLOUDY    56  49  77 S15       29.65S
SIOUX FALLS    CLOUDY    56  50  80 S15       29.73R
WINNER         FAIR      62  46  55 S17       29.58F
YANKTON        MOCLDY    57  48  72 S17G24    29.71R
$$

MNZ071-072-080-081-089-090-097-098-200600-
SOUTHWEST MINNESOTA

CITY           SKY/WX    TMP DP  RH WIND       PRES   REMARKS
FAIRMONT       CLOUDY    52  46  80 SE14      29.83S
JACKSON        CLOUDY    52  45  76 S16G23    29.81S
LUVERNE        CLOUDY    52  46  82 S14       29.76R
MARSHALL       CLOUDY    53  47  79 SE16      29.74R
MONTEVIDEO     CLOUDY    55  48  76 S16G22    29.74S
PIPESTONE      CLOUDY    54  46  76 S16       29.74S
REDWOOD FALLS  MOCLDY    52  46  80 SE16      29.77S
TRACY          CLOUDY    54  48  82 S13G22    29.75R
WINDOM         CLOUDY    54  46  76 SE15      29.79S
WORTHINGTON    MOCLDY    53  47  79 S21G26    29.78R
$$

IAZ001>003-012>014-020>022-031-032-NEZ013-014-SDZ071-200600-
NORTHWEST IOWA

CITY           SKY/WX    TMP DP  RH WIND       PRES   REMARKS
CHEROKEE       MOCLDY    54  50  87 S9        29.82R
DENISON        PTCLDY    57  52  82 S13G22    29.82R
ESTHERVILLE    PTCLDY    50  47  89 S15       29.82S
LE MARS        PTCLDY    57  52  82 S18       29.78R
SHELDON        MOCLDY    52  52 100 S18       29.77S
SIOUX CITY     CLOUDY    59  52  77 S16G26    29.80R
SPENCER        CLOUDY    53  47  79 SE14      29.81R
STORM LAKE     PTCLDY    52  46  82 S16       29.83R
$$

ABBREVIATIONS USED IN REMARKS
   TC - TEMPERATURE IN CELSIUS
  WCI - WIND CHILL INDEX
   HX - HEAT INDEX
  VSB - VISIBILITY





USA.gov is the U.S. government's official web portal to all federal, state and local government web resources and services.